Find Starlink 34764

NORAD ID: 65098 Int'l Des: 2025-167 Owner: SPXS Country: US Constellation: starlink operational
LEOCIRCULAR

实时位置

正在加载3D地球...

关于 Starlink 34764

正在加载描述...

即将过境

Passes for default location (London). Set your location on the main map for personalized predictions.

高度历史

Loading altitude history...

两行轨道根数

1 65098U 25167W 26104.63533669 .00006543 00000-0 23286-3 0 9995
2 65098 53.1600 219.6639 0001072 94.6526 265.4597 15.30199569 38987
Epoch: Apr 14, 2026 • Age: 14 hours

当前状态

高度 493.7 km
速度 7.62 km/s
星下点 -51.47°S, 170.64°W
发射日期 Aug 4, 2025
运行时间 0.6 years
类型 internet

技术详情

分类 Payload
质量 575.00 kg
干质量 530.00 kg
总质量 575.00 kg
长度 0.30 m
直径 4.10 m
跨度 29.00 m
形状 Box + pan
制造商 SPXS
平台类型 Starlink V2MO
阶段状态 In Orbit
所有者/国家 SPXS/US

Most Searched